Location: Kailua
(21.4020°N, 157.7390°W)
Time: 23:31:27
(UTC-10:00)

Cosmos 2221 Rocket - Visible Passes

Search period start: 28 April 2017 00:00
Search period end: 08 May 2017 00:00
Orbit: 620 x 649 km, 82.5° (Epoch: 27 April)

Date Brightness Start Highest point End Pass type
(mag) Time Alt. Az. Time Alt. Az. Time Alt. Az.
28 Apr 5.8 20:24:17 12° NE 20:24:17 12° NE 20:24:47 10° NE visible
28 Apr 6.6 22:01:41 12° NW 22:01:41 12° NW 22:02:17 10° NW visible
29 Apr 4.8 20:45:21 30° NNE 20:45:21 30° NNE 20:47:46 10° NNE visible
30 Apr 4.4 21:06:17 49° NW 21:06:17 49° NW 21:09:57 10° N visible
01 May 5.0 19:49:40 17° E 19:49:58 17° E 19:52:51 10° NE visible
01 May 5.7 21:27:01 21° W 21:27:53 22° W 21:31:19 10° NNW visible
02 May 3.9 20:10:10 27° SE 20:12:01 42° E 20:16:11 10° NNE visible
03 May 3.7 20:30:20 13° S 20:34:09 74° W 20:38:34 10° N visible
04 May 5.5 20:52:36 10° SW 20:56:24 28° W 21:00:13 10° NNW visible
05 May 4.3 19:36:41 10° SSE 19:40:35 32° E 19:44:32 10° NNE visible
05 May 6.7 21:17:11 10° W 21:18:44 12° W 21:20:19 10° WNW visible
06 May 3.5 19:58:18 10° S 20:02:42 85° E 20:07:08 10° N visible
07 May 5.1 20:20:51 10° SSW 20:24:55 37° W 20:29:01 10° NNW visible
